Wind_Speed
20 19 20 21 20 20 22 26 28 28 25 25 26 23 25 25 25 27 28 28 30 30 31 31 31 30 29 28 25 22 21 20 18 18 18 18 19 21
20 21 22 22 21 22 25 28 28 29 29 26 26 24 24 25 26 28 29 29 31 32 31 31 30 28 27 24 20 18 18 18 15 15 15 17 16 17
23 24 24 24 21 23 25 28 29 29 27 25 25 25 25 25 27 28 28 29 30 30 29 29 28 26 23 19 17 15 14 14 15 13 14 16 15 14
25 27 27 25 25 24 27 31 29 27 26 25 25 25 27 28 28 28 29 29 29 29 28 26 24 21 19 16 14 13 12 11 13 12 12 13 11 13
29 29 27 26 27 28 27 27 26 25 25 25 26 27 29 29 29 30 29 28 28 27 24 21 19 17 15 12 12 10 9 8 9 8 10 9 10 12
33 32 32 31 30 30 28 27 26 25 25 26 27 28 29 29 29 29 27 26 26 23 20 16 13 12 9 9 9 8 9 8 8 8 8 9 10 10
35 35 35 33 32 31 30 27 25 25 26 27 29 29 29 29 27 26 25 24 20 17 14 11 9 7 5 6 7 8 8 9 7 10 10 11 10 12
34 36 36 35 33 31 31 27 25 26 26 27 28 28 28 26 24 24 22 18 14 10 9 7 7 8 11 14 14 13 11 9 14 17 14 13 13 11
37 37 36 35 33 31 30 27 26 26 27 28 27 27 24 23 21 19 16 11 10 8 6 6 7 7 8 8 12 13 12 13 12 13 14 16 17 18
39 37 36 34 33 30 29 27 26 26 26 27 25 23 23 21 17 15 12 10 10 8 8 10 10 9 7 7 7 8 9 9 9 11 12 13 16 17
39 37 35 33 32 31 28 25 27 26 25 25 24 22 20 18 17 13 11 11 12 11 11 11 10 11 12 12 12 12 10 9 9 9 10 12 15 16
37 35 35 33 32 30 29 27 26 27 26 25 23 22 21 18 16 14 13 11 14 13 12 10 12 11 9 10 11 13 10 8 10 10 13 14 15 16
37 37 35 34 32 31 31 29 28 27 27 26 24 22 22 19 19 18 14 13 13 14 12 10 9 10 10 10 8 7 7 8 10 12 15 17 17 17
39 38 36 35 33 33 32 30 29 27 28 26 25 22 21 20 21 20 17 15 15 16 16 14 12 12 12 10 10 12 15 16 16 16 16 16 17 18
42 39 36 36 35 34 33 32 30 28 27 25 24 23 22 23 22 21 20 19 18 18 17 16 16 16 14 12 12 14 16 17 18 18 18 19 18 18
46 43 41 41 40 37 35 32 31 30 28 26 25 24 25 24 24 23 22 21 20 19 18 18 18 17 17 16 15 16 17 17 16 16 17 20 22 21
49 45 42 42 40 37 35 33 32 31 29 27 25 25 27 27 26 24 22 21 20 21 21 21 20 19 19 20 19 20 21 20 17 16 16 18 20 21
43 46 42 40 39 35 34 33 32 30 26 27 27 28 29 29 28 26 24 23 22 22 22 22 22 22 22 23 23 23 26 21 17 16 16 18 21 22
39 32 31 28 27 29 29 29 27 25 26 27 29 30 29 30 29 27 24 23 22 23 23 24 24 23 23 24 25 24 25 20 16 16 16 17 19 22
33 30 28 23 25 25 25 25 23 23 25 26 27 29 29 29 29 29 30 33 24 25 23 24 24 24 23 24 25 26 24 21 20 19 19 20 20 21
31 30 25 23 22 23 22 22 22 22 23 26 27 28 27 30 30 31 35 31 27 26 24 22 26 28 28 28 26 25 23 21 21 21 22 22 23 23
34 29 25 21 20 21 21 21 21 21 22 24 25 27 26 28 31 28 26 27 28 28 27 33 36 31 28 26 25 23 23 23 24 22 21 22 23 24
27 26 23 22 22 22 23 24 23 22 21 22 23 25 26 28 27 28 27 29 33 37 33 30 27 24 23 23 24 24 25 28 26 24 24 24 23 23
Wind_Direction
240 245 251 252 255 265 273 279 282 285 287 289 291 289 290 292 294 294 295 300 300 299 300 300 299 297 299 298 294 288 283 277 271 269 259 244 235 229
248 247 250 257 265 272 279 281 281 285 287 287 288 291 290 292 294 297 298 300 301 300 299 295 293 295 293 289 291 285 280 277 264 257 251 248 240 230
249 251 258 257 267 277 278 284 286 283 283 284 287 288 291 291 294 295 296 296 295 294 295 296 295 293 287 289 284 279 274 270 260 254 256 251 241 237
251 253 253 259 264 277 279 285 284 280 282 283 287 289 291 292 292 293 292 293 296 297 295 290 291 287 287 283 276 268 267 261 258 250 252 249 241 235
251 253 257 256 264 273 284 282 276 277 279 280 284 286 288 291 293 296 297 298 298 294 293 291 288 282 281 275 261 256 258 254 258 251 245 238 241 228
248 249 253 256 265 273 282 276 273 276 278 282 283 286 288 291 293 296 296 295 294 294 291 287 282 274 272 264 267 264 259 258 263 273 259 240 232 229
249 250 252 257 264 271 277 272 272 274 279 283 285 287 290 291 292 290 291 291 289 285 284 278 263 260 266 277 289 280 276 278 263 276 264 256 230 223
251 252 254 259 264 270 273 271 272 277 282 285 286 285 285 286 286 288 290 288 281 278 266 262 255 269 276 268 273 277 279 267 273 260 246 207 227 232
251 252 255 259 262 266 266 269 274 280 285 286 285 283 283 282 284 284 281 272 258 256 259 258 256 255 264 275 261 267 247 257 256 240 235 231 216 206
254 254 255 256 259 261 261 264 271 280 285 286 282 281 277 277 278 272 262 245 248 253 263 270 255 252 252 259 265 261 252 256 258 246 236 234 235 233
256 255 256 257 259 259 261 266 274 280 283 282 280 277 273 271 264 253 243 250 251 250 259 252 256 264 269 273 275 272 266 258 251 246 251 240 236 234
257 256 256 254 255 259 262 267 273 279 280 276 274 271 266 258 242 234 240 255 253 246 239 256 273 268 271 284 270 256 250 254 257 250 247 246 242 239
255 254 254 254 255 258 261 266 271 278 280 275 267 264 261 248 232 236 239 242 238 238 236 258 272 270 270 264 262 254 249 262 271 259 248 244 241 237
252 249 247 250 253 255 260 265 270 276 278 270 261 259 253 241 233 229 232 241 240 240 247 256 271 273 279 273 276 279 280 279 275 280 258 248 245 241
251 250 248 251 252 254 259 264 269 275 276 268 257 254 243 235 227 231 237 237 241 246 251 257 262 272 272 271 288 298 298 289 281 271 256 243 243 245
260 252 250 250 250 250 255 261 267 272 271 260 249 246 239 231 231 238 238 239 244 244 250 258 263 265 265 267 286 302 306 304 285 272 260 248 244 245
257 257 244 247 251 252 255 260 264 271 266 253 245 241 235 233 234 237 239 242 243 247 253 258 260 260 262 264 278 292 305 300 287 275 264 255 248 247
254 248 250 246 242 247 250 259 265 266 257 249 240 238 235 233 235 237 238 242 244 250 254 256 260 261 266 267 275 288 299 292 280 275 266 259 255 250
246 241 233 231 246 252 253 255 257 256 249 248 244 235 232 234 236 239 236 240 251 250 252 258 260 264 269 271 275 286 292 284 278 274 269 261 259 255
249 234 230 241 247 247 249 251 251 251 251 251 249 242 231 234 235 233 238 245 244 252 254 257 262 264 264 270 277 282 281 279 279 277 273 269 266 263
240 230 240 238 234 240 244 247 249 252 253 252 250 246 233 234 235 237 254 241 243 250 252 254 258 266 275 274 272 272 271 274 280 279 275 271 267 265
228 232 230 229 232 239 244 247 250 253 255 254 252 245 235 236 241 249 238 242 245 249 254 262 263 267 270 267 265 264 267 274 280 283 280 273 268 267
225 228 228 231 235 244 247 248 252 256 257 256 251 245 235 237 244 235 243 242 245 249 255 265 259 258 262 264 265 268 271 274 274 279 279 272 269 269
Height
3106 3106 3108 3109 3110 3109 3108 3108 3107 3106 3104 3103 3101 3102 3099 3097 3094 3092 3090 3088 3086 3082 3080 3077 3076 3075 3073 3070 3068 3067 3068 3066 3065 3066 3068 3069 3070 3072
3100 3101 3102 3103 3103 3103 3102 3101 3100 3098 3096 3096 3093 3094 3092 3090 3088 3086 3084 3080 3078 3076 3073 3071 3068 3066 3066 3064 3062 3061 3062 3063 3062 3062 3063 3065 3066 3067
3094 3094 3095 3095 3096 3095 3096 3095 3092 3091 3089 3089 3087 3086 3086 3084 3081 3079 3078 3075 3073 3069 3066 3064 3062 3061 3059 3058 3058 3057 3058 3058 3059 3058 3059 3061 3063 3062
3087 3087 3088 3089 3089 3088 3088 3086 3085 3083 3082 3080 3080 3078 3077 3076 3075 3072 3070 3068 3066 3062 3059 3057 3056 3054 3054 3053 3053 3054 3054 3055 3055 3055 3056 3058 3058 3060
3079 3080 3080 3081 3082 3081 3079 3078 3078 3076 3075 3074 3072 3073 3071 3069 3067 3064 3062 3059 3057 3056 3053 3051 3051 3049 3050 3050 3051 3051 3052 3052 3053 3053 3054 3054 3056 3057
3072 3072 3071 3074 3073 3073 3072 3069 3069 3069 3068 3066 3066 3065 3065 3061 3058 3057 3054 3051 3051 3049 3047 3046 3047 3048 3047 3047 3048 3048 3049 3049 3051 3051 3052 3052 3054 3055
3063 3063 3063 3065 3065 3065 3064 3062 3062 3062 3060 3059 3058 3056 3055 3053 3050 3050 3048 3046 3043 3043 3043 3042 3043 3045 3044 3045 3046 3046 3046 3047 3048 3049 3050 3050 3052 3053
3054 3054 3055 3055 3054 3055 3056 3054 3053 3054 3052 3050 3050 3048 3046 3045 3044 3044 3042 3042 3040 3038 3039 3039 3040 3041 3042 3042 3043 3043 3044 3045 3047 3048 3048 3049 3049 3050
3044 3045 3045 3046 3046 3045 3047 3044 3043 3044 3044 3043 3041 3042 3039 3038 3038 3036 3037 3035 3036 3037 3035 3036 3038 3039 3039 3039 3039 3039 3040 3041 3042 3042 3043 3045 3047 3049
3035 3034 3035 3036 3036 3035 3034 3035 3034 3035 3033 3037 3034 3034 3033 3031 3031 3031 3032 3033 3034 3034 3033 3034 3035 3036 3036 3036 3036 3036 3037 3037 3038 3039 3040 3041 3043 3046
3025 3026 3025 3027 3026 3027 3028 3025 3028 3028 3025 3026 3029 3029 3026 3024 3027 3027 3027 3029 3030 3030 3031 3032 3033 3033 3033 3032 3032 3033 3033 3034 3034 3036 3037 3039 3040 3042
3016 3016 3015 3016 3015 3015 3019 3019 3019 3021 3018 3019 3020 3020 3021 3021 3022 3023 3022 3024 3026 3026 3029 3030 3029 3029 3029 3029 3029 3030 3030 3030 3031 3032 3033 3035 3037 3039
3005 3006 3005 3006 3006 3006 3010 3012 3009 3012 3012 3011 3012 3011 3014 3014 3016 3017 3018 3020 3022 3023 3024 3025 3025 3025 3026 3026 3026 3026 3026 3027 3027 3028 3029 3030 3032 3034
2993 2993 2993 2996 2996 2997 3000 3002 3001 3001 3002 3004 3005 3005 3006 3007 3010 3013 3014 3016 3017 3019 3020 3020 3022 3023 3023 3023 3023 3023 3022 3022 3022 3023 3024 3025 3027 3029
2980 2981 2982 2983 2985 2988 2991 2991 2992 2993 2994 2996 2997 2998 2999 3001 3004 3007 3009 3010 3012 3014 3015 3016 3017 3018 3018 3019 3018 3018 3017 3016 3016 3016 3017 3019 3021 3023
2967 2969 2971 2972 2975 2977 2979 2980 2983 2984 2985 2986 2988 2990 2992 2995 2998 3000 3002 3004 3006 3008 3009 3010 3011 3012 3013 3013 3013 3013 3012 3011 3010 3010 3011 3012 3014 3016
2954 2952 2956 2960 2963 2965 2967 2971 2973 2974 2976 2977 2979 2983 2985 2987 2991 2993 2995 2997 2999 3001 3003 3004 3005 3006 3007 3008 3007 3007 3006 3005 3004 3004 3005 3006 3008 3009
2939 2942 2945 2948 2951 2954 2957 2960 2962 2964 2965 2967 2971 2973 2977 2980 2983 2985 2988 2991 2993 2994 2996 2997 2999 2999 3000 3001 3001 3000 2999 2999 2999 2999 2999 3000 3001 3002
2928 2930 2934 2938 2942 2944 2947 2950 2953 2954 2956 2958 2961 2964 2968 2972 2975 2978 2980 2983 2986 2988 2989 2990 2991 2992 2993 2993 2994 2994 2992 2992 2992 2993 2993 2994 2994 2995
2918 2922 2926 2929 2933 2936 2939 2942 2944 2946 2948 2950 2953 2955 2959 2963 2966 2969 2972 2975 2977 2980 2982 2984 2985 2985 2986 2987 2987 2987 2986 2986 2986 2986 2987 2987 2987 2987
2910 2915 2919 2922 2925 2929 2932 2934 2936 2938 2940 2942 2945 2947 2950 2955 2959 2962 2964 2965 2968 2971 2975 2976 2975 2977 2978 2979 2979 2979 2978 2979 2979 2978 2979 2979 2979 2980
2903 2907 2912 2915 2918 2921 2923 2926 2928 2930 2933 2935 2937 2939 2943 2947 2950 2952 2955 2958 2961 2963 2965 2966 2966 2968 2969 2970 2970 2970 2971 2971 2971 2971 2971 2971 2971 2971
2895 2900 2904 2907 2911 2914 2916 2919 2921 2924 2926 2928 2930 2932 2935 2939 2942 2944 2947 2949 2951 2952 2954 2956 2957 2959 2961 2961 2961 2962 2963 2963 2963 2964 2963 2962 2963 2963